| time (UTC) | temp C | wind direction | speed KPH | gust KPH | rain 1hr cm | rain 24hr cm | rain mn cm | humidity % | barometer mb |
| 20260505024558 | 15 | 351 | 25.7 | 46.7 | 0.00 | 0.00 | 0.00 | 47 | 999.3 |
| 20260505023052 | 15 | 38 | 29.0 | 49.9 | 0.00 | 0.00 | 0.00 | 43 | 998.4 |
| 20260505021552 | 16 | 25 | 29.0 | 51.5 | 0.00 | 0.00 | 0.00 | 42 | 997.9 |
| 20260505020050 | 17 | 342 | 32.2 | 49.9 | 0.00 | 0.00 | 0.00 | 36 | 998.0 |
| 20260505014603 | 18 | 340 | 20.9 | 40.2 | 0.00 | 0.00 | 0.00 | 33 | 997.5 |
| 20260505013052 | 18 | 1 | 19.3 | 35.4 | 0.00 | 0.00 | 0.00 | 34 | 997.1 |
| 20260505011550 | 18 | 1 | 22.5 | 35.4 | 0.00 | 0.00 | 0.00 | 33 | 997.0 |
| 20260505010055 | 19 | 1 | 19.3 | 33.8 | 0.00 | 0.00 | 0.00 | 28 | 996.3 |
| 20260505004550 | 20 | 11 | 17.7 | 32.2 | 0.00 | 0.00 | 0.00 | 28 | 996.3 |
| 20260505003056 | 20 | 7 | 14.5 | 33.8 | 0.00 | 0.00 | 0.00 | 27 | 996.3 |
| 20260505001546 | 20 | 7 | 16.1 | 32.2 | 0.00 | 0.00 | 0.00 | 26 | 996.4 |
| 20260505000051 | 21 | 10 | 12.9 | 20.9 | 0.00 | 0.00 | 0.00 | 25 | 996.3 |
| 20260504234546 | 21 | 1 | 14.5 | 27.4 | 0.00 | 0.00 | 0.00 | 24 | 996.2 |
| 20260504233047 | 23 | 277 | 11.3 | 19.3 | 0.00 | 0.00 | 0.00 | 19 | 996.3 |
| 20260504231544 | 23 | 309 | 8.0 | 29.0 | 0.00 | 0.00 | 0.00 | 19 | 996.1 |
| 20260504230044 | 23 | 249 | 8.0 | 22.5 | 0.00 | 0.00 | 0.00 | 19 | 996.0 |
| 20260504224543 | 23 | 254 | 11.3 | 27.4 | 0.00 | 0.00 | 0.00 | 18 | 996.0 |
| 20260504223058 | 23 | 351 | 9.7 | 27.4 | 0.00 | 0.00 | 0.00 | 17 | 995.9 |
| 20260504221541 | 23 | 259 | 12.9 | 29.0 | 0.00 | 0.00 | 0.00 | 18 | 996.1 |
| 20260504220039 | 23 | 257 | 8.0 | 32.2 | 0.00 | 0.00 | 0.00 | 18 | 996.4 |
| 20260504214539 | 23 | 210 | 9.7 | 27.4 | 0.00 | 0.00 | 0.00 | 18 | 996.4 |
| 20260504213037 | 23 | 304 | 16.1 | 35.4 | 0.00 | 0.00 | 0.00 | 19 | 996.6 |
| 20260504211551 | 23 | 236 | 8.0 | 30.6 | 0.00 | 0.00 | 0.00 | 21 | 997.0 |
| 20260504210038 | 23 | 262 | 11.3 | 41.8 | 0.00 | 0.00 | 0.00 | 22 | 997.1 |
| 20260504204533 | 23 | 250 | 12.9 | 35.4 | 0.00 | 0.00 | 0.00 | 20 | 997.3 |
| 20260504203032 | 23 | 242 | 16.1 | 40.2 | 0.00 | 0.00 | 0.00 | 20 | 997.4 |
| 20260504201531 | 23 | 265 | 14.5 | 35.4 | 0.00 | 0.00 | 0.00 | 20 | 997.6 |
| 20260504200031 | 24 | 271 | 9.7 | 35.4 | 0.00 | 0.00 | 0.00 | 19 | 997.6 |
| 20260504194529 | 24 | 231 | 9.7 | 25.7 | 0.00 | 0.00 | 0.00 | 16 | 997.5 |
| 20260504193027 | 24 | 266 | 9.7 | 22.5 | 0.00 | 0.00 | 0.00 | 16 | 997.7 |
| 20260504191527 | 23 | 269 | 9.7 | 32.2 | 0.00 | 0.00 | 0.00 | 16 | 997.9 |
| 20260504190023 | 23 | 231 | 12.9 | 33.8 | 0.00 | 0.00 | 0.00 | 17 | 998.0 |
| 20260504184533 | 23 | 249 | 16.1 | 25.7 | 0.00 | 0.00 | 0.00 | 15 | 998.1 |
| 20260504183020 | 23 | 284 | 8.0 | 24.1 | 0.00 | 0.00 | 0.00 | 17 | 998.5 |
| 20260504181517 | 23 | 284 | 14.5 | 29.0 | 0.00 | 0.00 | 0.00 | 18 | 998.6 |
| 20260504180015 | 23 | 244 | 11.3 | 33.8 | 0.00 | 0.00 | 0.00 | 19 | 998.5 |
| 20260504174514 | 22 | 234 | 14.5 | 33.8 | 0.00 | 0.00 | 0.00 | 20 | 998.6 |
| 20260504173011 | 22 | 257 | 6.4 | 19.3 | 0.00 | 0.00 | 0.00 | 22 | 999.2 |
| 20260504171509 | 22 | 280 | 8.0 | 27.4 | 0.00 | 0.00 | 0.00 | 22 | 999.6 |
| 20260504081548 | 11 | 6 | 0.0 | 0.0 | 0.00 | 0.00 | 0.00 | 48 | 1003.2 |
| 20260504044523 | 18 | 13 | 8.0 | 20.9 | 0.00 | 0.00 | 0.00 | 25 | 1003.9 |
| 20260504043027 | 18 | 27 | 4.8 | 8.0 | 0.00 | 0.00 | 0.00 | 24 | 1003.7 |
| 20260504041531 | 19 | 34 | 6.4 | 14.5 | 0.00 | 0.00 | 0.00 | 21 | 1003.7 |
| 20260504040021 | 20 | 15 | 4.8 | 11.3 | 0.00 | 0.00 | 0.00 | 20 | 1003.8 |
| 20260504034521 | 19 | 12 | 3.2 | 11.3 | 0.00 | 0.00 | 0.00 | 22 | 1004.1 |
| 20260504033021 | 19 | 30 | 11.3 | 17.7 | 0.00 | 0.00 | 0.00 | 21 | 1004.0 |
| 20260504031520 | 19 | 100 | 0.0 | 0.0 | 0.00 | 0.00 | 0.00 | 24 | 1003.6 |
| 20260504030019 | 19 | 346 | 0.0 | 1.6 | 0.00 | 0.00 | 0.00 | 21 | 1003.4 |